Location: Be?chatów
(51.3665°N, 19.3745°E)
Time: 06:59:49
(UTC+00:00)

Cosmos 1758 - Pass Details

Date: 19 May 2025
Orbit: 491 x 512 km, 82.5° (Epoch: 17 June)

Event Time Altitude Azimuth Distance (km) Brightness Sun altitude
Rises 23:17:51 0° 349° (N) 2,644 8.1 -18.1°
Reaches altitude 10° 23:20:00 10° 351° (N) 1,751 7.0 -18.1°
Maximum altitude 23:23:51 84° 78° (ENE) 523 3.1 -18.0°
Enters shadow 23:25:03 42° 164° (SSE) 738 3.5 -17.9°
